This is the latest recevied weather packets stored in our database for station/object VE8SKI. If no packets are shown the sender has not sent any weather packets the latest 10 day(s).
| Time | Temp. | Humidity | Pressure | Rain* | Wind** | Luminosity | Snow |
|---|---|---|---|---|---|---|---|
| 1777801325 | -1.67° C | 89% | 1011.9 hPa | 0 mm | 1.79 m/s, 94° | - | - |
| 1777801026 | -1.67° C | 89% | 1011.8 hPa | 0 mm | 1.79 m/s, 84° | - | - |
| 1777800726 | -1.67° C | 89% | 1011.7 hPa | 0 mm | 1.79 m/s, 114° | - | - |
| 1777800426 | -1.67° C | 88% | 1011.7 hPa | 0 mm | 1.79 m/s, 60° | - | - |
| 1777800123 | -1.67° C | 89% | 1011.7 hPa | 0 mm | 1.79 m/s, 117° | - | - |
| 1777799824 | -1.67° C | 88% | 1011.6 hPa | 0 mm | 2.24 m/s, 104° | - | - |
| 1777799524 | -1.67° C | 88% | 1011.6 hPa | 0 mm | 2.68 m/s, 111° | - | - |
| 1777799224 | -1.67° C | 88% | 1011.5 hPa | 0 mm | 2.24 m/s, 69° | - | - |
| 1777798924 | -1.67° C | 88% | 1011.5 hPa | 0 mm | 1.79 m/s, 94° | - | - |
| 1777798624 | -1.67° C | 88% | 1011.4 hPa | 0 mm | 2.24 m/s, 21° | - | - |
| 1777798322 | -1.11° C | 88% | 1011.3 hPa | 0 mm | 2.24 m/s, 97° | - | - |
| 1777798022 | -1.11° C | 88% | 1011.3 hPa | 0 mm | 2.68 m/s, 101° | - | - |
| 1777797729 | -1.11° C | 88% | 1011.3 hPa | 0 mm | 2.24 m/s, 84° | - | - |
| 1777797423 | -1.11° C | 87% | 1011.2 hPa | 0 mm | 2.68 m/s, 91° | - | - |
| 1777797123 | -1.11° C | 87% | 1011.2 hPa | 0 mm | 2.24 m/s, 68° | - | - |
| 1777796823 | -1.11° C | 87% | 1011.1 hPa | 0 mm | 2.24 m/s, 80° | - | - |
| 1777796520 | -1.11° C | 87% | 1011.1 hPa | 0 mm | 3.13 m/s, 55° | - | - |
| 1777796221 | -1.11° C | 87% | 1010.9 hPa | 0 mm | 3.13 m/s, 66° | - | - |
| 1777795921 | -1.11° C | 88% | 1010.9 hPa | 0 mm | 2.24 m/s, 35° | - | - |
| 1777795621 | -1.11° C | 88% | 1010.9 hPa | 0 mm | 1.34 m/s, 107° | - | - |
| 1777795321 | -0.56° C | 87% | 1010.9 hPa | 0 mm | 1.79 m/s, 41° | - | - |
| 1777795022 | -1.11° C | 87% | 1010.8 hPa | 0 mm | 2.24 m/s, 76° | - | - |
| 1777794719 | -1.11° C | 87% | 1010.7 hPa | 0 mm | 2.24 m/s, 69° | - | - |
| 1777794419 | -1.11° C | 87% | 1010.7 hPa | 0 mm | 2.24 m/s, 91° | - | - |
| 1777794120 | -1.11° C | 86% | 1010.7 hPa | 0 mm | 2.68 m/s, 80° | - | - |
* Rain latest hour (hover to see other rain measurements)
** Current wind speed in m/s (hover to see current wind gust speed)